• In Hungary
  • List of Countries
  • For 7 days
  • Water Temperature
  • Satellite Maps
  • Weather Map
  • News
  • Weather Widgets
  • user-avatar
    Login

    Hourly Weather Jasliska

    Today, 22 September, Saturday

    Time Temperature Precipitation Wind Pressure Humidity
    00:00 +17°C° 0 mm 3 mps 722 mmHg 66%
    01:00 +16°C° 0 mm 3 mps 722 mmHg 64%
    02:00 +16°C° 0 mm 3 mps 722 mmHg 64%
    03:00 +16°C° 0 mm 3 mps 722 mmHg 63%
    04:00 +16°C° 0 mm 3 mps 723 mmHg 62%
    05:00 +14°C° 0.4 mm 3 mps 723 mmHg 70%
    06:00 +14°C° 0.4 mm 3 mps 724 mmHg 77%
    07:00 +13°C° 0.4 mm 4 mps 725 mmHg 85%
    08:00 +13°C° 0.8 mm 3 mps 725 mmHg 86%
    09:00 +12°C° 0.8 mm 3 mps 725 mmHg 86%
    10:00 +12°C° 0.8 mm 3 mps 726 mmHg 87%
    11:00 +12°C° 1 mm 2 mps 726 mmHg 88%
    12:00 +12°C° 1 mm 1 mps 726 mmHg 88%
    13:00 +12°C° 1 mm 1 mps 726 mmHg 89%
    14:00 +12°C° 0.2 mm 1 mps 726 mmHg 86%
    15:00 +13°C° 0.2 mm 1 mps 726 mmHg 84%
    16:00 +13°C° 0.2 mm 1 mps 726 mmHg 81%
    17:00 +12°C° 0 mm 1 mps 726 mmHg 84%
    18:00 +11°C° 0 mm 1 mps 726 mmHg 87%
    19:00 +9°C° 0 mm 2 mps 726 mmHg 91%
    20:00 +9°C° 0 mm 2 mps 726 mmHg 90%
    21:00 +9°C° 0 mm 2 mps 726 mmHg 89%
    22:00 +8°C° 0 mm 2 mps 727 mmHg 88%
    23:00 +8°C° 0 mm 2 mps 727 mmHg 88%

    Tomorrow, 23 September, Sunday

    Time Temperature Precipitation Wind Pressure Humidity
    00:00 +8°C° 0 mm 2 mps 727 mmHg 88%
    01:00 +9°C° 0 mm 1 mps 726 mmHg 88%
    02:00 +8°C° 0 mm 2 mps 726 mmHg 89%
    03:00 +8°C° 0 mm 2 mps 726 mmHg 89%
    04:00 +8°C° 0 mm 2 mps 726 mmHg 90%
    05:00 +8°C° 0 mm 2 mps 726 mmHg 89%
    06:00 +9°C° 0 mm 2 mps 726 mmHg 88%
    07:00 +9°C° 0 mm 3 mps 726 mmHg 87%
    08:00 +10°C° 0 mm 3 mps 726 mmHg 82%
    09:00 +12°C° 0 mm 3 mps 726 mmHg 76%
    10:00 +13°C° 0 mm 4 mps 726 mmHg 71%
    11:00 +13°C° 0 mm 4 mps 726 mmHg 68%
    12:00 +14°C° 0 mm 4 mps 725 mmHg 66%
    13:00 +15°C° 0 mm 4 mps 725 mmHg 63%
    14:00 +15°C° 0 mm 4 mps 725 mmHg 64%
    15:00 +16°C° 0 mm 3 mps 724 mmHg 65%
    16:00 +16°C° 0 mm 3 mps 724 mmHg 66%
    17:00 +14°C° 0 mm 3 mps 723 mmHg 69%
    18:00 +13°C° 0 mm 4 mps 722 mmHg 71%
    19:00 +12°C° 0 mm 4 mps 722 mmHg 73%
    20:00 +13°C° 0 mm 5 mps 721 mmHg 70%
    21:00 +13°C° 0 mm 6 mps 720 mmHg 67%
    22:00 +13°C° 0 mm 6 mps 719 mmHg 63%
    23:00 +12°C° 0.3 mm 7 mps 718 mmHg 69%

    Day after tomorrow, 24 September, Monday

    Time Temperature Precipitation Wind Pressure Humidity
    00:00 +12°C° 0.3 mm 7 mps 716 mmHg 74%
    01:00 +11°C° 0.3 mm 7 mps 715 mmHg 79%
    02:00 +12°C° 1.1 mm 7 mps 714 mmHg 81%
    03:00 +12°C° 1.1 mm 8 mps 713 mmHg 82%
    04:00 +13°C° 1.1 mm 8 mps 713 mmHg 83%
    05:00 +12°C° 0.8 mm 8 mps 713 mmHg 83%
    06:00 +11°C° 0.8 mm 8 mps 714 mmHg 83%
    07:00 +8°C° 0.8 mm 9 mps 715 mmHg 84%
    08:00 +9°C° 0.1 mm 8 mps 717 mmHg 82%
    09:00 +8°C° 0.1 mm 7 mps 719 mmHg 81%
    10:00 +8°C° 0.1 mm 7 mps 721 mmHg 80%
    11:00 +8°C° 0.3 mm 7 mps 722 mmHg 77%
    12:00 +8°C° 0.3 mm 7 mps 723 mmHg 75%
    13:00 +9°C° 0.3 mm 8 mps 724 mmHg 72%
    14:00 +9°C° 0.1 mm 7 mps 724 mmHg 67%
    15:00 +9°C° 0.1 mm 7 mps 725 mmHg 62%
    16:00 +9°C° 0.1 mm 7 mps 725 mmHg 57%
    17:00 +8°C° 0 mm 6 mps 726 mmHg 60%
    18:00 +7°C° 0 mm 5 mps 726 mmHg 63%
    19:00 +6°C° 0 mm 5 mps 727 mmHg 65%
    20:00 +6°C° 0 mm 5 mps 727 mmHg 68%
    21:00 +5°C° 0 mm 5 mps 728 mmHg 70%
    22:00 +5°C° 0 mm 5 mps 728 mmHg 72%
    23:00 +5°C° 0 mm 5 mps 729 mmHg 74%

    25 September, Tuesday

    Time Temperature Precipitation Wind Pressure Humidity
    00:00 +4°C° 0 mm 4 mps 729 mmHg 76%
    01:00 +4°C° 0 mm 4 mps 729 mmHg 79%
    02:00 +3°C° 0 mm 4 mps 730 mmHg 80%
    03:00 +3°C° 0 mm 4 mps 730 mmHg 81%
    04:00 +3°C° 0 mm 3 mps 731 mmHg 83%
    05:00 +3°C° 0 mm 4 mps 731 mmHg 80%
    06:00 +4°C° 0 mm 4 mps 732 mmHg 78%
    07:00 +3°C° 0 mm 5 mps 732 mmHg 76%
    08:00 +5°C° 0.1 mm 5 mps 733 mmHg 70%
    09:00 +7°C° 0.1 mm 6 mps 733 mmHg 63%
    10:00 +8°C° 0.1 mm 6 mps 734 mmHg 57%
    11:00 +8°C° 0.1 mm 6 mps 734 mmHg 53%
    12:00 +9°C° 0.1 mm 6 mps 734 mmHg 50%
    13:00 +9°C° 0.1 mm 6 mps 734 mmHg 46%
    14:00 +9°C° 0.1 mm 5 mps 734 mmHg 48%
    15:00 +9°C° 0.1 mm 5 mps 734 mmHg 49%
    16:00 +8°C° 0.1 mm 4 mps 734 mmHg 51%
    17:00 +8°C° 0 mm 3 mps 735 mmHg 56%
    18:00 +6°C° 0 mm 2 mps 735 mmHg 60%
    19:00 +5°C° 0 mm 2 mps 735 mmHg 65%
    20:00 +4°C° 0 mm 2 mps 735 mmHg 67%
    21:00 +4°C° 0 mm 2 mps 735 mmHg 68%
    22:00 +3°C° 0 mm 2 mps 735 mmHg 69%
    23:00 +3°C° 0 mm 2 mps 735 mmHg 69%

    26 September, Wednesday

    Time Temperature Precipitation Wind Pressure Humidity
    00:00 +3°C° 0 mm 2 mps 735 mmHg 69%
    01:00 +3°C° 0 mm 2 mps 734 mmHg 69%
    02:00 +3°C° 0 mm 2 mps 734 mmHg 69%
    03:00 +2°C° 0 mm 3 mps 734 mmHg 69%
    04:00 +2°C° 0 mm 3 mps 734 mmHg 70%
    05:00 +3°C° 0 mm 3 mps 734 mmHg 67%
    06:00 +4°C° 0 mm 4 mps 733 mmHg 64%
    07:00 +5°C° 0 mm 4 mps 733 mmHg 62%
    08:00 +6°C° 0 mm 5 mps 733 mmHg 61%
    09:00 +8°C° 0 mm 5 mps 733 mmHg 60%
    10:00 +9°C° 0 mm 6 mps 733 mmHg 60%
    11:00 +9°C° 0.2 mm 5 mps 733 mmHg 64%
    12:00 +9°C° 0.2 mm 5 mps 733 mmHg 68%
    13:00 +9°C° 0.2 mm 5 mps 732 mmHg 72%
    14:00 +10°C° 0.1 mm 4 mps 732 mmHg 74%
    15:00 +10°C° 0.1 mm 4 mps 732 mmHg 76%
    16:00 +10°C° 0.1 mm 3 mps 732 mmHg 78%
    17:00 +9°C° 0 mm 3 mps 733 mmHg 82%
    18:00 +8°C° 0 mm 2 mps 733 mmHg 86%
    19:00 +8°C° 0 mm 1 mps 733 mmHg 90%
    20:00 +8°C° 0 mm 1 mps 733 mmHg 90%
    21:00 +8°C° 0 mm 1 mps 734 mmHg 90%
    22:00 +8°C° 0 mm 1 mps 734 mmHg 90%
    23:00 +8°C° 0 mm 1 mps 734 mmHg 91%

    27 September, Thursday

    Time Temperature Precipitation Wind Pressure Humidity
    00:00 +8°C° 0 mm 1 mps 733 mmHg 92%
    01:00 +7°C° 0 mm 1 mps 733 mmHg 92%
    02:00 +7°C° 0 mm 1 mps 733 mmHg 93%
    03:00 +6°C° 0 mm 1 mps 733 mmHg 93%
    04:00 +6°C° 0 mm 1 mps 732 mmHg 93%
    05:00 +7°C° 0 mm 1 mps 732 mmHg 90%
    06:00 +6°C° 0 mm 2 mps 732 mmHg 88%
    07:00 +7°C° 0 mm 2 mps 732 mmHg 86%
    08:00 +9°C° 0 mm 2 mps 732 mmHg 77%
    09:00 +11°C° 0 mm 3 mps 732 mmHg 69%
    10:00 +13°C° 0 mm 3 mps 732 mmHg 61%
    11:00 +14°C° 0 mm 4 mps 732 mmHg 57%
    12:00 +15°C° 0 mm 4 mps 731 mmHg 52%
    13:00 +17°C° 0 mm 4 mps 731 mmHg 48%
    14:00 +17°C° 0 mm 4 mps 730 mmHg 51%
    15:00 +15°C° 0 mm 4 mps 729 mmHg 53%
    16:00 +15°C° 0 mm 4 mps 729 mmHg 56%
    17:00 +13°C° 0 mm 4 mps 729 mmHg 60%
    18:00 +12°C° 0 mm 4 mps 728 mmHg 64%
    19:00 +10°C° 0 mm 4 mps 728 mmHg 68%
    20:00 +10°C° 0 mm 3 mps 728 mmHg 70%
    21:00 +9°C° 0 mm 3 mps 728 mmHg 72%
    22:00 +9°C° 0 mm 3 mps 728 mmHg 75%
    23:00 +8°C° 0 mm 3 mps 727 mmHg 76%
    Show more